FENGYUN 1C DEB

Satellite information

Favourite Embed

Satellite Type and Status

DEBRISDECAYED

Key statistics

Satellite FENGYUN 1C DEB at a glance.

Uptime

9685

Days in orbit

Revolutions

≈ 15.6

Per day

Orbit

SSO

Sun Synchronous Orbit

Inclination

99.0

Latest

Satellite identification and parameters

Extended collection of information and parameters for FENGYUN 1C DEB.

Object identification

Identified? True

Debris? True

Object name: FENGYUN 1C DEB

International designator: 1999-025ALU

Object number (NORAD): 30578

Object ID (CCSDS): 30578

Country: PEOPLES REPUBLIC OF CHINA (PRC)

Current information (Y/N): Y

RCS size: SMALL

Orbital parameters

Decay date: Nov. 14, 2025

Period: 92.089 minutes

Inclination: 98.9724 deg

SMA: 6755.085 km

Apoapsis: 384.001 km

Periapsis: 369.9 km

RAAN: 173.2714 deg

Eccentricy: 0.00104377

Argument of periapsis: 44.1838 deg

Mean anomaly: 82.589 deg

Mean motion: 15.63711025 rev/day

Mean motion (dot): 0.02968295 rev/day2

B* drag term: 0.027781251 1/REarth

Two-line elements (TLE)

Creation date: Nov. 12, 2025, 10:14 a.m.

Reference frame: TEME

Reference center: EARTH

Epoch: Nov. 12, 2025, 4:31 a.m. UTC

TLE line 0: 0 FENGYUN 1C DEB

TLE line 1: 1 30578U 99025ALU 25316.18850422 .02968295 00000-0 27781-1 0 9992

TLE line 2: 2 30578 98.9724 173.2714 0010438 44.1838 82.5890 15.63711025972015

Live tracking on map

Satellite FENGYUN 1C DEB has decayed and is no longer in orbit. No tracking available.

In-orbit conjunctions

Satellite FENGYUN 1C DEB has decayed and is no longer in orbit. No conjunctions available.

Associated space launch

Chinese polar orbiting meteorological satellite

FENGYUN 1C DEB was lifted into orbit during the mission ‘Long March 4B | Feng Yun 1C’, on board a Long March 4B space rocket.

The launch took place on May 10, 1999, 1:33 a.m. from Launch Complex 7.

For more information about the launch, click the button.

Launch to space Long March 4B | Feng Yun 1C
Long March 4B | Feng Yun 1C

Agency: N/A

Status: Launch Successful

Launch date: May 10, 1999, 1:33 a.m. UTC

Rocket: Long March 4B

Launch pad: Launch Complex 7

Location: Taiyuan Satellite Launch Center, People's Republic of China

...

Latest news about this satellite

There are no fresh news available about this satellite. Check back as we update our databases every day.


Newsletter sign-up

Weekly statistics, charts and insights to help you stay on top of the space industry.